{"data":{"norad_id":60343,"epoch":"2026-09-21T22:38:47.957568Z","epoch_age_seconds":60859,"freshness":"FRESH","line1":"1 60343U 24136Q   26264.94361062 -.00000277  00000+0  29259-5 0  9991","line2":"2 60343  53.1584 243.2205 0001381  85.8479 274.2681 15.34389188119726","mean_motion":15.34389188,"eccentricity":0.0001381,"inclination_deg":53.1584,"raan_deg":243.2205,"arg_perigee_deg":85.8479,"mean_anomaly_deg":274.2681,"bstar":2.9259e-6,"rev_number":11972,"period_min":93.848419375072,"perigee_km":461.79065146321,"apogee_km":463.68010041345,"semimajor_km":6840.8723759383,"source":"CELESTRAK","updated_at":"2026-09-22T09:00:49.221625Z"}}